| time (UTC) | temp F | wind direction | speed MPH | gust MPH | rain 1hr in | rain 24hr in | rain mn in | humidity % | barometer mb |
| 20260507101455 | 36 | 159 | 0.0 | 0.0 | 0.00 | 0.00 | 0.00 | 99 | 1013.8 |
| 20260507100952 | 36 | 166 | 0.0 | 0.0 | 0.00 | 0.00 | 0.00 | 99 | 1013.4 |
| 20260507100450 | 36 | 156 | 0.0 | 0.0 | 0.00 | 0.00 | 0.00 | 99 | 1013.3 |
| 20260507095948 | 36 | 157 | 0.0 | 0.0 | 0.00 | 0.00 | 0.00 | 99 | 1013.3 |
| 20260507095445 | 36 | 157 | 0.0 | 0.0 | 0.00 | 0.00 | 0.00 | 99 | 1013.3 |
| 20260507094942 | 37 | 160 | 0.0 | 0.0 | 0.00 | 0.00 | 0.00 | 99 | 1013.4 |
| 20260507094438 | 37 | 161 | 0.0 | 0.0 | 0.00 | 0.00 | 0.00 | 98 | 1013.4 |
| 20260507093935 | 36 | 166 | 0.0 | 0.0 | 0.00 | 0.00 | 0.00 | 98 | 1013.4 |
| 20260507093433 | 36 | 159 | 0.0 | 0.0 | 0.00 | 0.00 | 0.00 | 98 | 1013.5 |
| 20260507092931 | 37 | 161 | 0.0 | 0.0 | 0.00 | 0.00 | 0.00 | 98 | 1013.3 |
| 20260507092427 | 37 | 166 | 0.0 | 0.0 | 0.00 | 0.00 | 0.00 | 98 | 1013.3 |
| 20260507091924 | 37 | 179 | 0.0 | 0.0 | 0.00 | 0.00 | 0.00 | 98 | 1013.2 |
| 20260507091420 | 37 | 152 | 0.0 | 0.0 | 0.00 | 0.00 | 0.00 | 98 | 1013.1 |
| 20260507090916 | 37 | 152 | 0.0 | 0.0 | 0.00 | 0.00 | 0.00 | 98 | 1013.2 |
| 20260507090412 | 37 | 168 | 0.0 | 0.0 | 0.00 | 0.00 | 0.00 | 98 | 1013.3 |
| 20260507085909 | 37 | 159 | 0.0 | 0.0 | 0.00 | 0.00 | 0.00 | 98 | 1013.6 |
| 20260507085406 | 37 | 158 | 0.0 | 0.0 | 0.00 | 0.00 | 0.00 | 98 | 1013.6 |
| 20260507084903 | 37 | 163 | 0.0 | 0.0 | 0.00 | 0.00 | 0.00 | 97 | 1013.6 |
| 20260507084400 | 37 | 162 | 0.0 | 0.0 | 0.00 | 0.00 | 0.00 | 97 | 1013.4 |
| 20260507083857 | 37 | 171 | 0.0 | 0.0 | 0.00 | 0.00 | 0.00 | 97 | 1013.3 |
| 20260507083353 | 37 | 146 | 0.0 | 0.0 | 0.00 | 0.00 | 0.00 | 97 | 1013.3 |
| 20260507082850 | 37 | 159 | 0.0 | 0.0 | 0.00 | 0.00 | 0.00 | 97 | 1013.1 |
| 20260507082345 | 38 | 164 | 0.0 | 0.0 | 0.00 | 0.00 | 0.00 | 97 | 1013.3 |
| 20260507081843 | 38 | 165 | 0.0 | 0.0 | 0.00 | 0.00 | 0.00 | 97 | 1013.2 |
| 20260507081339 | 38 | 170 | 0.0 | 0.0 | 0.00 | 0.00 | 0.00 | 97 | 1013.1 |
| 20260507080836 | 38 | 160 | 0.0 | 0.0 | 0.00 | 0.00 | 0.00 | 96 | 1013.1 |
| 20260507080332 | 38 | 163 | 0.0 | 0.0 | 0.00 | 0.00 | 0.00 | 96 | 1013.3 |
| 20260507075828 | 38 | 174 | 0.0 | 0.0 | 0.00 | 0.00 | 0.00 | 96 | 1013.3 |
| 20260507075324 | 39 | 152 | 0.0 | 0.0 | 0.00 | 0.00 | 0.00 | 96 | 1013.2 |
| 20260507074820 | 39 | 168 | 0.0 | 0.0 | 0.00 | 0.00 | 0.00 | 96 | 1013.2 |
| 20260507074318 | 39 | 163 | 0.0 | 0.0 | 0.00 | 0.00 | 0.00 | 96 | 1013.2 |
| 20260507073815 | 39 | 162 | 0.0 | 0.0 | 0.00 | 0.00 | 0.00 | 95 | 1013.2 |
| 20260507073311 | 39 | 150 | 0.0 | 0.0 | 0.00 | 0.00 | 0.00 | 95 | 1013.2 |
| 20260507072809 | 39 | 156 | 0.0 | 0.0 | 0.00 | 0.00 | 0.00 | 95 | 1013.3 |
| 20260507072308 | 39 | 161 | 0.0 | 0.0 | 0.00 | 0.00 | 0.00 | 94 | 1013.2 |
| 20260507071803 | 39 | 162 | 0.0 | 0.0 | 0.00 | 0.00 | 0.00 | 94 | 1013.2 |
| 20260507071300 | 40 | 163 | 0.0 | 0.0 | 0.00 | 0.00 | 0.00 | 93 | 1013.2 |
| 20260507070756 | 40 | 162 | 0.0 | 0.0 | 0.00 | 0.00 | 0.00 | 93 | 1013.3 |
| 20260507070254 | 40 | 164 | 0.0 | 0.0 | 0.00 | 0.00 | 0.00 | 93 | 1013.3 |
| 20260507065750 | 40 | 162 | 0.0 | 0.0 | 0.00 | 0.00 | 0.00 | 92 | 1013.4 |
| 20260507065247 | 41 | 162 | 0.0 | 0.0 | 0.00 | 0.00 | 0.00 | 91 | 1013.4 |
| 20260507064744 | 41 | 161 | 0.0 | 0.0 | 0.00 | 0.00 | 0.00 | 90 | 1013.4 |
| 20260507064243 | 41 | 165 | 0.0 | 0.0 | 0.00 | 0.00 | 0.00 | 90 | 1013.4 |
| 20260507063740 | 41 | 170 | 0.0 | 0.0 | 0.00 | 0.00 | 0.00 | 91 | 1013.6 |
| 20260507063237 | 41 | 150 | 0.0 | 0.0 | 0.00 | 0.00 | 0.00 | 89 | 1013.6 |
| 20260507062734 | 42 | 149 | 0.0 | 0.0 | 0.00 | 0.00 | 0.00 | 89 | 1013.7 |
| 20260507062231 | 42 | 149 | 0.0 | 0.0 | 0.00 | 0.00 | 0.00 | 88 | 1013.6 |
| 20260507061730 | 42 | 150 | 0.0 | 0.0 | 0.00 | 0.00 | 0.00 | 87 | 1013.8 |
| 20260507061227 | 43 | 149 | 0.0 | 0.0 | 0.00 | 0.00 | 0.00 | 85 | 1013.6 |
| 20260507060725 | 43 | 147 | 0.0 | 0.0 | 0.00 | 0.00 | 0.00 | 85 | 1013.6 |
| 20260507060221 | 44 | 157 | 0.0 | 0.0 | 0.00 | 0.00 | 0.00 | 83 | 1013.5 |
| 20260507055717 | 44 | 150 | 0.0 | 0.0 | 0.00 | 0.00 | 0.00 | 78 | 1013.6 |
| 20260507055213 | 44 | 159 | 0.0 | 0.0 | 0.00 | 0.00 | 0.00 | 77 | 1013.8 |
| 20260507054709 | 44 | 159 | 0.0 | 0.0 | 0.00 | 0.00 | 0.00 | 81 | 1013.5 |
| 20260507054206 | 44 | 154 | 0.0 | 0.0 | 0.00 | 0.00 | 0.00 | 77 | 1013.6 |
| 20260507053704 | 44 | 172 | 0.0 | 0.0 | 0.00 | 0.00 | 0.00 | 79 | 1013.6 |
| 20260507053202 | 43 | 154 | 0.0 | 0.0 | 0.00 | 0.00 | 0.00 | 81 | 1013.4 |
| 20260507052700 | 43 | 154 | 0.0 | 0.0 | 0.00 | 0.00 | 0.00 | 84 | 1013.5 |
| 20260507052156 | 43 | 167 | 0.0 | 0.0 | 0.00 | 0.00 | 0.00 | 88 | 1013.5 |
| 20260507051654 | 43 | 162 | 0.0 | 0.0 | 0.00 | 0.00 | 0.00 | 89 | 1013.5 |
| 20260507051150 | 42 | 156 | 0.0 | 0.0 | 0.00 | 0.00 | 0.00 | 89 | 1013.4 |
| 20260507050647 | 42 | 153 | 0.0 | 0.0 | 0.00 | 0.00 | 0.00 | 95 | 1013.3 |
| 20260507050144 | 42 | 164 | 0.0 | 0.0 | 0.00 | 0.00 | 0.00 | 96 | 1013.4 |
| 20260507045641 | 42 | 172 | 0.0 | 0.0 | 0.00 | 0.00 | 0.00 | 96 | 1013.4 |
| 20260507045137 | 42 | 152 | 0.0 | 0.0 | 0.00 | 0.00 | 0.00 | 95 | 1013.1 |
| 20260507044634 | 42 | 167 | 0.0 | 0.0 | 0.00 | 0.00 | 0.00 | 96 | 1013.3 |
| 20260507044131 | 42 | 168 | 0.0 | 0.0 | 0.00 | 0.00 | 0.00 | 97 | 1013.3 |
| 20260507043627 | 42 | 161 | 0.0 | 0.0 | 0.00 | 0.00 | 0.00 | 97 | 1013.2 |
| 20260507043124 | 42 | 162 | 0.0 | 0.0 | 0.00 | 0.00 | 0.00 | 97 | 1013.3 |
| 20260507042620 | 42 | 155 | 0.0 | 0.0 | 0.00 | 0.00 | 0.00 | 97 | 1013.3 |
| 20260507042116 | 42 | 154 | 0.0 | 0.0 | 0.00 | 0.00 | 0.00 | 97 | 1013.2 |
| 20260507041613 | 42 | 156 | 0.0 | 0.0 | 0.00 | 0.00 | 0.00 | 97 | 1013.2 |
| 20260507041110 | 42 | 158 | 0.0 | 0.0 | 0.00 | 0.00 | 0.00 | 97 | 1013.3 |
| 20260507040607 | 42 | 160 | 0.0 | 0.0 | 0.00 | 0.00 | 0.00 | 97 | 1013.3 |
| 20260507035559 | 42 | 158 | 0.0 | 0.0 | 0.00 | 0.07 | 0.07 | 96 | 1013.2 |
| 20260507035055 | 42 | 154 | 0.0 | 0.0 | 0.00 | 0.07 | 0.07 | 96 | 1013.4 |
| 20260507034552 | 42 | 149 | 0.0 | 0.0 | 0.00 | 0.07 | 0.07 | 96 | 1013.3 |
| 20260507034050 | 43 | 149 | 0.0 | 0.0 | 0.00 | 0.07 | 0.07 | 96 | 1013.4 |
| 20260507033548 | 43 | 156 | 0.0 | 0.0 | 0.00 | 0.07 | 0.07 | 95 | 1013.1 |
| 20260507033044 | 43 | 158 | 0.0 | 0.0 | 0.00 | 0.07 | 0.07 | 95 | 1013.4 |
| 20260507032541 | 43 | 157 | 0.0 | 0.0 | 0.00 | 0.07 | 0.07 | 95 | 1013.5 |
| 20260507032038 | 43 | 159 | 0.0 | 0.0 | 0.00 | 0.07 | 0.07 | 95 | 1013.3 |
| 20260507031534 | 43 | 160 | 0.0 | 0.0 | 0.00 | 0.07 | 0.07 | 94 | 1013.3 |
| 20260507031032 | 44 | 162 | 0.0 | 0.0 | 0.00 | 0.07 | 0.07 | 94 | 1013.1 |
| 20260507030528 | 44 | 155 | 0.0 | 0.0 | 0.00 | 0.07 | 0.07 | 94 | 1013.3 |
| 20260507030026 | 44 | 160 | 0.0 | 0.0 | 0.00 | 0.07 | 0.07 | 94 | 1013.2 |
| 20260507025523 | 44 | 165 | 0.0 | 0.0 | 0.00 | 0.07 | 0.07 | 93 | 1013.1 |
| 20260507025020 | 44 | 162 | 0.0 | 0.0 | 0.00 | 0.07 | 0.07 | 93 | 1013.0 |
| 20260507024518 | 45 | 165 | 0.0 | 0.0 | 0.00 | 0.07 | 0.07 | 93 | 1013.1 |
| 20260507024014 | 45 | 164 | 0.0 | 0.0 | 0.00 | 0.07 | 0.07 | 92 | 1013.1 |
| 20260507023510 | 45 | 161 | 0.0 | 0.0 | 0.00 | 0.07 | 0.07 | 92 | 1013.2 |
| 20260507023008 | 45 | 164 | 0.0 | 0.0 | 0.00 | 0.07 | 0.07 | 92 | 1013.3 |
| 20260507022505 | 45 | 159 | 0.0 | 0.0 | 0.00 | 0.07 | 0.07 | 90 | 1013.0 |
| 20260507022000 | 45 | 162 | 0.0 | 0.0 | 0.00 | 0.07 | 0.07 | 90 | 1012.8 |
| 20260507021456 | 46 | 160 | 0.0 | 0.0 | 0.00 | 0.07 | 0.07 | 90 | 1012.8 |
| 20260507020953 | 46 | 154 | 0.0 | 0.0 | 0.00 | 0.07 | 0.07 | 90 | 1012.8 |
| 20260507020450 | 46 | 149 | 0.0 | 0.0 | 0.00 | 0.07 | 0.07 | 90 | 1012.8 |
| 20260507015947 | 47 | 154 | 0.0 | 0.0 | 0.00 | 0.07 | 0.07 | 90 | 1012.8 |
| 20260507015446 | 47 | 158 | 0.0 | 0.0 | 0.00 | 0.07 | 0.07 | 89 | 1012.9 |
| 20260507014942 | 47 | 151 | 0.0 | 0.0 | 0.00 | 0.07 | 0.07 | 86 | 1012.5 |
| 20260507014439 | 47 | 151 | 0.0 | 0.0 | 0.00 | 0.07 | 0.07 | 85 | 1012.5 |
| 20260507013935 | 47 | 152 | 0.0 | 0.0 | 0.00 | 0.07 | 0.07 | 83 | 1012.5 |
| 20260507013432 | 47 | 147 | 0.0 | 0.0 | 0.00 | 0.07 | 0.07 | 80 | 1012.8 |
| 20260507012929 | 48 | 147 | 0.0 | 0.0 | 0.00 | 0.07 | 0.07 | 81 | 1012.5 |
| 20260507012426 | 48 | 147 | 0.0 | 0.0 | 0.00 | 0.07 | 0.07 | 83 | 1012.4 |
| 20260507011922 | 49 | 147 | 0.0 | 0.0 | 0.00 | 0.07 | 0.07 | 81 | 1012.6 |
| 20260507011420 | 49 | 146 | 0.0 | 0.0 | 0.00 | 0.07 | 0.07 | 74 | 1012.8 |
| 20260507010919 | 49 | 147 | 0.0 | 0.0 | 0.00 | 0.07 | 0.07 | 75 | 1012.5 |
| 20260507010415 | 49 | 145 | 0.0 | 0.0 | 0.00 | 0.07 | 0.07 | 74 | 1012.2 |
| 20260507005912 | 50 | 144 | 0.0 | 0.0 | 0.00 | 0.07 | 0.07 | 73 | 1012.5 |
| 20260507005409 | 50 | 144 | 0.0 | 0.0 | 0.00 | 0.07 | 0.07 | 77 | 1012.1 |
| 20260507004906 | 51 | 151 | 0.0 | 0.0 | 0.00 | 0.07 | 0.07 | 72 | 1012.4 |
| 20260507004403 | 51 | 150 | 0.0 | 0.0 | 0.00 | 0.07 | 0.07 | 68 | 1012.2 |
| 20260507003900 | 51 | 149 | 0.0 | 0.0 | 0.00 | 0.07 | 0.07 | 66 | 1012.1 |
| 20260507003355 | 52 | 143 | 0.0 | 0.0 | 0.00 | 0.07 | 0.07 | 68 | 1012.1 |
| 20260507002851 | 52 | 160 | 0.0 | 0.0 | 0.00 | 0.07 | 0.07 | 65 | 1012.1 |
| 20260507002347 | 52 | 128 | 0.0 | 0.0 | 0.00 | 0.07 | 0.07 | 64 | 1011.9 |
| 20260507001844 | 52 | 161 | 0.0 | 0.0 | 0.00 | 0.07 | 0.07 | 68 | 1011.7 |
| 20260507001341 | 53 | 173 | 0.0 | 0.0 | 0.00 | 0.07 | 0.07 | 62 | 1011.8 |
| 20260507000837 | 53 | 180 | 1.0 | 1.0 | 0.00 | 0.07 | 0.07 | 67 | 1011.7 |
| 20260507000335 | 53 | 213 | 1.0 | 1.0 | 0.00 | 0.07 | 0.07 | 62 | 1011.7 |
| 20260506235830 | 53 | 169 | 0.0 | 0.0 | 0.00 | 0.07 | 0.07 | 63 | 1011.4 |
| 20260506235326 | 53 | 174 | 0.0 | 1.0 | 0.00 | 0.07 | 0.07 | 60 | 1011.6 |
| 20260506234822 | 54 | 247 | 2.0 | 2.0 | 0.00 | 0.07 | 0.07 | 64 | 1011.6 |
| 20260506234321 | 54 | 183 | 1.0 | 1.0 | 0.00 | 0.07 | 0.07 | 64 | 1011.5 |
| 20260506233818 | 55 | 187 | 1.0 | 1.0 | 0.00 | 0.07 | 0.07 | 61 | 1011.5 |
| 20260506233313 | 55 | 227 | 3.0 | 3.0 | 0.00 | 0.07 | 0.07 | 55 | 1011.4 |
| 20260506232811 | 55 | 260 | 3.0 | 5.0 | 0.00 | 0.07 | 0.07 | 58 | 1011.7 |
| 20260506232306 | 55 | 246 | 0.0 | 0.0 | 0.00 | 0.07 | 0.07 | 66 | 1011.6 |
| 20260506231803 | 55 | 191 | 0.0 | 0.0 | 0.00 | 0.07 | 0.07 | 63 | 1011.6 |
| 20260506231301 | 55 | 128 | 0.0 | 0.0 | 0.00 | 0.07 | 0.07 | 61 | 1011.6 |
| 20260506230758 | 55 | 158 | 0.0 | 0.0 | 0.00 | 0.07 | 0.07 | 63 | 1011.5 |
| 20260506230255 | 55 | 154 | 0.0 | 0.0 | 0.00 | 0.07 | 0.07 | 60 | 1011.6 |
| 20260506225751 | 55 | 170 | 0.0 | 0.0 | 0.00 | 0.07 | 0.07 | 59 | 1011.6 |
| 20260506225249 | 55 | 268 | 3.0 | 3.0 | 0.00 | 0.07 | 0.07 | 63 | 1011.5 |
| 20260506224745 | 56 | 264 | 4.0 | 5.0 | 0.00 | 0.07 | 0.07 | 59 | 1011.7 |
| 20260506224243 | 56 | 253 | 3.0 | 3.0 | 0.00 | 0.07 | 0.07 | 58 | 1011.4 |
| 20260506223738 | 56 | 151 | 0.0 | 0.0 | 0.00 | 0.07 | 0.07 | 64 | 1011.7 |
| 20260506223234 | 55 | 149 | 0.0 | 0.0 | 0.00 | 0.07 | 0.07 | 62 | 1011.6 |
| 20260506222731 | 55 | 129 | 0.0 | 0.0 | 0.00 | 0.07 | 0.07 | 62 | 1011.8 |
| 20260506222226 | 56 | 177 | 0.0 | 1.0 | 0.00 | 0.07 | 0.07 | 66 | 1011.9 |
| 20260506221725 | 56 | 165 | 1.0 | 1.0 | 0.00 | 0.07 | 0.07 | 64 | 1011.8 |
| 20260506221223 | 56 | 211 | 0.0 | 1.0 | 0.00 | 0.07 | 0.07 | 69 | 1011.9 |
| 20260506220720 | 55 | 252 | 1.0 | 2.0 | 0.00 | 0.07 | 0.07 | 66 | 1011.7 |
| 20260506220214 | 55 | 243 | 2.0 | 2.0 | 0.00 | 0.07 | 0.07 | 67 | 1011.7 |
| 20260506215711 | 55 | 249 | 3.0 | 3.0 | 0.00 | 0.07 | 0.07 | 66 | 1012.1 |
| 20260506215207 | 56 | 271 | 3.0 | 3.0 | 0.00 | 0.07 | 0.07 | 63 | 1012.0 |
| 20260506214703 | 56 | 266 | 3.0 | 3.0 | 0.00 | 0.07 | 0.07 | 66 | 1011.9 |
| 20260506214201 | 56 | 215 | 3.0 | 5.0 | 0.00 | 0.07 | 0.07 | 69 | 1012.0 |
| 20260506213659 | 56 | 244 | 2.0 | 2.0 | 0.00 | 0.07 | 0.07 | 65 | 1011.9 |
| 20260506213156 | 57 | 248 | 2.0 | 3.0 | 0.00 | 0.07 | 0.07 | 67 | 1011.8 |
| 20260506212653 | 56 | 253 | 3.0 | 3.0 | 0.00 | 0.07 | 0.07 | 64 | 1011.8 |
| 20260506212148 | 56 | 154 | 0.0 | 0.0 | 0.00 | 0.07 | 0.07 | 67 | 1011.6 |
| 20260506211644 | 56 | 257 | 0.0 | 0.0 | 0.00 | 0.07 | 0.07 | 63 | 1011.7 |
| 20260506211141 | 57 | 217 | 0.0 | 0.0 | 0.00 | 0.07 | 0.07 | 65 | 1011.6 |
| 20260506210638 | 57 | 263 | 0.0 | 0.0 | 0.00 | 0.07 | 0.07 | 66 | 1011.5 |
| 20260506210134 | 57 | 269 | 0.0 | 0.0 | 0.00 | 0.07 | 0.07 | 71 | 1011.6 |
| 20260506205632 | 57 | 133 | 0.0 | 0.0 | 0.00 | 0.07 | 0.07 | 69 | 1011.6 |
| 20260506205126 | 57 | 176 | 0.0 | 0.0 | 0.00 | 0.07 | 0.07 | 69 | 1011.4 |
| 20260506204625 | 57 | 254 | 0.0 | 0.0 | 0.00 | 0.07 | 0.07 | 68 | 1011.6 |
| 20260506204121 | 56 | 247 | 3.0 | 3.0 | 0.00 | 0.07 | 0.07 | 66 | 1011.4 |
| 20260506203619 | 56 | 242 | 4.0 | 5.0 | 0.00 | 0.07 | 0.07 | 65 | 1011.5 |
| 20260506203116 | 56 | 243 | 2.0 | 2.0 | 0.00 | 0.07 | 0.07 | 65 | 1011.6 |
| 20260506202614 | 56 | 257 | 0.0 | 0.0 | 0.00 | 0.07 | 0.07 | 67 | 1011.6 |
| 20260506202110 | 56 | 249 | 2.0 | 2.0 | 0.00 | 0.07 | 0.07 | 68 | 1011.6 |
| 20260506201607 | 56 | 256 | 3.0 | 3.0 | 0.00 | 0.07 | 0.07 | 64 | 1011.6 |
| 20260506201103 | 56 | 257 | 0.0 | 2.0 | 0.00 | 0.07 | 0.07 | 66 | 1011.7 |
| 20260506200600 | 56 | 266 | 0.0 | 0.0 | 0.00 | 0.07 | 0.07 | 64 | 1011.5 |
| 20260506200056 | 56 | 263 | 2.0 | 2.0 | 0.00 | 0.07 | 0.07 | 67 | 1011.7 |
| 20260506195553 | 56 | 253 | 1.0 | 2.0 | 0.00 | 0.07 | 0.07 | 66 | 1011.6 |
| 20260506195049 | 56 | 211 | 1.0 | 1.0 | 0.00 | 0.07 | 0.07 | 70 | 1011.8 |
| 20260506194548 | 56 | 158 | 0.0 | 0.0 | 0.00 | 0.07 | 0.07 | 70 | 1011.6 |
| 20260506194043 | 56 | 146 | 0.0 | 0.0 | 0.00 | 0.07 | 0.07 | 70 | 1011.5 |
| 20260506193541 | 57 | 157 | 0.0 | 0.0 | 0.00 | 0.07 | 0.07 | 75 | 1011.7 |
| 20260506193038 | 56 | 203 | 0.0 | 0.0 | 0.00 | 0.07 | 0.07 | 72 | 1011.8 |
| 20260506192535 | 56 | 239 | 0.0 | 0.0 | 0.00 | 0.07 | 0.07 | 71 | 1011.6 |
| 20260506192031 | 56 | 127 | 1.0 | 2.0 | 0.00 | 0.07 | 0.07 | 68 | 1011.6 |
| 20260506191528 | 56 | 341 | 0.0 | 0.0 | 0.00 | 0.07 | 0.07 | 73 | 1011.8 |
| 20260506191024 | 56 | 236 | 0.0 | 0.0 | 0.00 | 0.07 | 0.07 | 67 | 1011.6 |
| 20260506190521 | 56 | 145 | 0.0 | 0.0 | 0.00 | 0.07 | 0.07 | 71 | 1011.7 |
| 20260506190019 | 56 | 217 | 0.0 | 0.0 | 0.00 | 0.07 | 0.07 | 64 | 1011.8 |
| 20260506185515 | 56 | 248 | 0.0 | 0.0 | 0.00 | 0.07 | 0.07 | 67 | 1011.5 |
| 20260506185012 | 56 | 251 | 0.0 | 0.0 | 0.00 | 0.07 | 0.07 | 69 | 1011.5 |
| 20260506184509 | 56 | 258 | 0.0 | 0.0 | 0.00 | 0.07 | 0.07 | 65 | 1011.7 |
| 20260506184006 | 55 | 214 | 0.0 | 0.0 | 0.00 | 0.07 | 0.07 | 67 | 1011.6 |
| 20260506183502 | 56 | 160 | 0.0 | 0.0 | 0.00 | 0.07 | 0.07 | 70 | 1011.8 |
| 20260506182959 | 55 | 207 | 0.0 | 0.0 | 0.00 | 0.07 | 0.07 | 64 | 1011.5 |
| 20260506182456 | 55 | 244 | 0.0 | 0.0 | 0.00 | 0.07 | 0.07 | 70 | 1011.7 |
| 20260506181953 | 56 | 155 | 0.0 | 0.0 | 0.00 | 0.07 | 0.07 | 79 | 1011.7 |
| 20260506181451 | 55 | 183 | 0.0 | 0.0 | 0.00 | 0.07 | 0.07 | 70 | 1011.6 |
| 20260506180948 | 55 | 142 | 0.0 | 0.0 | 0.00 | 0.07 | 0.07 | 70 | 1011.7 |
| 20260506180444 | 55 | 156 | 0.0 | 0.0 | 0.00 | 0.07 | 0.07 | 73 | 1011.8 |
| 20260506175941 | 56 | 250 | 0.0 | 0.0 | 0.00 | 0.07 | 0.07 | 67 | 1011.6 |
| 20260506175438 | 56 | 255 | 0.0 | 0.0 | 0.00 | 0.07 | 0.07 | 65 | 1011.7 |
| 20260506174934 | 56 | 157 | 0.0 | 0.0 | 0.00 | 0.07 | 0.07 | 76 | 1011.8 |
| 20260506174433 | 56 | 163 | 0.0 | 0.0 | 0.00 | 0.07 | 0.07 | 78 | 1011.8 |
| 20260506173929 | 55 | 193 | 0.0 | 0.0 | 0.00 | 0.07 | 0.07 | 72 | 1011.8 |
| 20260506173426 | 55 | 187 | 0.0 | 0.0 | 0.00 | 0.07 | 0.07 | 68 | 1011.5 |
| 20260506172923 | 55 | 155 | 0.0 | 0.0 | 0.00 | 0.07 | 0.07 | 73 | 1011.9 |
| 20260506172420 | 54 | 212 | 0.0 | 0.0 | 0.00 | 0.07 | 0.07 | 63 | 1011.7 |
| 20260506171917 | 55 | 211 | 0.0 | 0.0 | 0.00 | 0.07 | 0.07 | 67 | 1011.8 |
| 20260506171414 | 55 | 193 | 0.0 | 0.0 | 0.00 | 0.07 | 0.07 | 68 | 1011.7 |
| 20260506170912 | 55 | 242 | 0.0 | 0.0 | 0.00 | 0.07 | 0.07 | 73 | 1011.7 |
| 20260506170407 | 55 | 163 | 0.0 | 0.0 | 0.00 | 0.07 | 0.07 | 72 | 1011.6 |
| 20260506165901 | 55 | 172 | 0.0 | 0.0 | 0.00 | 0.07 | 0.07 | 68 | 1011.6 |
| 20260506165359 | 55 | 243 | 0.0 | 0.0 | 0.00 | 0.07 | 0.07 | 60 | 1011.9 |
| 20260506164855 | 55 | 206 | 0.0 | 0.0 | 0.00 | 0.07 | 0.07 | 73 | 1011.8 |
| 20260506164351 | 55 | 177 | 0.0 | 0.0 | 0.00 | 0.07 | 0.07 | 72 | 1011.8 |
| 20260506163849 | 55 | 167 | 0.0 | 0.0 | 0.00 | 0.07 | 0.07 | 76 | 1011.9 |
| 20260506163343 | 54 | 157 | 0.0 | 0.0 | 0.00 | 0.07 | 0.07 | 70 | 1011.9 |
| 20260506162839 | 55 | 179 | 0.0 | 0.0 | 0.00 | 0.07 | 0.07 | 70 | 1011.6 |
| 20260506162337 | 56 | 165 | 0.0 | 0.0 | 0.00 | 0.07 | 0.07 | 72 | 1011.6 |
| 20260506161835 | 57 | 158 | 0.0 | 0.0 | 0.00 | 0.07 | 0.07 | 70 | 1011.4 |
| 20260506161332 | 57 | 162 | 0.0 | 0.0 | 0.00 | 0.07 | 0.07 | 73 | 1011.3 |
| 20260506160829 | 56 | 155 | 0.0 | 0.0 | 0.00 | 0.07 | 0.07 | 67 | 1011.5 |
| 20260506160325 | 56 | 178 | 0.0 | 0.0 | 0.00 | 0.07 | 0.07 | 74 | 1011.4 |
| 20260506155824 | 55 | 209 | 0.0 | 0.0 | 0.00 | 0.07 | 0.07 | 68 | 1011.2 |
| 20260506155320 | 55 | 173 | 0.0 | 0.0 | 0.00 | 0.07 | 0.07 | 77 | 1011.7 |
| 20260506153433 | 54 | 189 | 0.0 | 1.0 | 0.00 | 0.07 | 0.07 | 63 | 1011.3 |
| 20260506152931 | 54 | 169 | 0.0 | 0.0 | 0.00 | 0.07 | 0.07 | 75 | 1011.4 |
| 20260506152427 | 55 | 98 | 0.0 | 0.0 | 0.00 | 0.07 | 0.07 | 77 | 1011.4 |
| 20260506151926 | 54 | 199 | 0.0 | 0.0 | 0.00 | 0.07 | 0.07 | 76 | 1011.4 |
| 20260506151422 | 55 | 134 | 1.0 | 1.0 | 0.00 | 0.07 | 0.07 | 65 | 1011.1 |
| 20260506150920 | 56 | 155 | 0.0 | 0.0 | 0.00 | 0.07 | 0.07 | 77 | 1011.3 |
| 20260506150416 | 56 | 134 | 0.0 | 0.0 | 0.00 | 0.07 | 0.07 | 74 | 1010.9 |
| 20260506145913 | 55 | 159 | 0.0 | 0.0 | 0.00 | 0.07 | 0.07 | 78 | 1011.2 |
| 20260506145409 | 54 | 211 | 2.0 | 2.0 | 0.00 | 0.07 | 0.07 | 75 | 1011.5 |
| 20260506144907 | 53 | 171 | 0.0 | 0.0 | 0.00 | 0.07 | 0.07 | 77 | 1011.3 |
| 20260506144403 | 54 | 183 | 0.0 | 0.0 | 0.00 | 0.07 | 0.07 | 77 | 1011.5 |
| 20260506143902 | 53 | 146 | 1.0 | 1.0 | 0.00 | 0.07 | 0.07 | 80 | 1011.3 |
| 20260506143358 | 53 | 251 | 0.0 | 0.0 | 0.00 | 0.07 | 0.07 | 80 | 1011.2 |
| 20260506142857 | 52 | 213 | 0.0 | 0.0 | 0.00 | 0.07 | 0.07 | 82 | 1011.0 |
| 20260506142354 | 53 | 82 | 0.0 | 0.0 | 0.00 | 0.07 | 0.07 | 91 | 1011.1 |
| 20260506141852 | 52 | 120 | 0.0 | 0.0 | 0.00 | 0.07 | 0.07 | 92 | 1011.1 |
| 20260506141350 | 50 | 160 | 0.0 | 0.0 | 0.00 | 0.07 | 0.07 | 89 | 1010.9 |
| 20260506140848 | 51 | 65 | 0.0 | 0.0 | 0.00 | 0.07 | 0.07 | 99 | 1011.0 |
| 20260506140345 | 52 | 136 | 0.0 | 0.0 | 0.00 | 0.07 | 0.07 | 99 | 1010.9 |
| 20260506135842 | 51 | 129 | 0.0 | 0.0 | 0.00 | 0.07 | 0.07 | 99 | 1010.8 |
| 20260506135338 | 49 | 136 | 0.0 | 0.0 | 0.00 | 0.07 | 0.07 | 99 | 1010.9 |
| 20260506134834 | 49 | 147 | 0.0 | 0.0 | 0.00 | 0.07 | 0.07 | 99 | 1010.8 |
| 20260506134331 | 49 | 251 | 0.0 | 0.0 | 0.00 | 0.07 | 0.07 | 99 | 1011.2 |
| 20260506133828 | 48 | 145 | 0.0 | 0.0 | 0.00 | 0.07 | 0.07 | 99 | 1010.7 |
| 20260506133325 | 48 | 160 | 0.0 | 0.0 | 0.00 | 0.07 | 0.07 | 99 | 1010.7 |
| 20260506132822 | 49 | 214 | 0.0 | 0.0 | 0.00 | 0.07 | 0.07 | 99 | 1010.4 |
| 20260506132319 | 48 | 142 | 0.0 | 0.0 | 0.00 | 0.07 | 0.07 | 99 | 1010.2 |
| 20260506131817 | 47 | 160 | 0.0 | 0.0 | 0.00 | 0.07 | 0.07 | 99 | 1010.5 |
| 20260506131313 | 47 | 155 | 0.0 | 0.0 | 0.00 | 0.07 | 0.07 | 99 | 1010.7 |
| 20260506130810 | 48 | 146 | 0.0 | 0.0 | 0.00 | 0.07 | 0.07 | 99 | 1010.5 |
| 20260506130306 | 47 | 157 | 0.0 | 0.0 | 0.00 | 0.07 | 0.07 | 99 | 1010.6 |
| 20260506125805 | 48 | 155 | 0.0 | 0.0 | 0.00 | 0.07 | 0.07 | 99 | 1010.2 |
| 20260506125305 | 47 | 153 | 0.0 | 0.0 | 0.00 | 0.07 | 0.07 | 99 | 1010.8 |
| 20260506124801 | 47 | 218 | 0.0 | 0.0 | 0.00 | 0.07 | 0.07 | 99 | 1011.0 |
| 20260506124257 | 47 | 164 | 0.0 | 0.0 | 0.00 | 0.07 | 0.07 | 99 | 1010.7 |
| 20260506123755 | 47 | 164 | 0.0 | 0.0 | 0.00 | 0.07 | 0.07 | 99 | 1010.5 |
| 20260506123254 | 46 | 164 | 0.0 | 0.0 | 0.00 | 0.07 | 0.07 | 99 | 1010.5 |
| 20260506122750 | 46 | 160 | 0.0 | 0.0 | 0.00 | 0.07 | 0.07 | 99 | 1010.3 |
| 20260506122247 | 46 | 159 | 0.0 | 0.0 | 0.00 | 0.07 | 0.07 | 99 | 1010.0 |
| 20260506121745 | 46 | 152 | 0.0 | 0.0 | 0.00 | 0.07 | 0.07 | 99 | 1010.3 |
| 20260506121242 | 46 | 155 | 0.0 | 0.0 | 0.00 | 0.07 | 0.07 | 99 | 1010.4 |
| 20260506120739 | 45 | 165 | 0.0 | 0.0 | 0.00 | 0.07 | 0.07 | 99 | 1010.1 |
| 20260506120237 | 45 | 182 | 0.0 | 0.0 | 0.00 | 0.07 | 0.07 | 99 | 1010.1 |
| 20260506115734 | 45 | 159 | 0.0 | 0.0 | 0.00 | 0.07 | 0.07 | 99 | 1009.9 |
| 20260506115232 | 45 | 165 | 0.0 | 0.0 | 0.00 | 0.07 | 0.07 | 99 | 1009.9 |
| 20260506114730 | 45 | 163 | 0.0 | 0.0 | 0.00 | 0.07 | 0.07 | 99 | 1009.9 |
| 20260506114227 | 45 | 185 | 0.0 | 0.0 | 0.00 | 0.07 | 0.07 | 99 | 1010.0 |
| 20260506113726 | 44 | 149 | 0.0 | 0.0 | 0.00 | 0.07 | 0.07 | 99 | 1009.3 |
| 20260506113223 | 44 | 144 | 0.0 | 0.0 | 0.00 | 0.07 | 0.07 | 99 | 1009.1 |
| 20260506112719 | 44 | 143 | 0.0 | 0.0 | 0.00 | 0.07 | 0.07 | 99 | 1009.3 |
| 20260506112217 | 44 | 162 | 0.0 | 0.0 | 0.00 | 0.07 | 0.07 | 99 | 1009.5 |
| 20260506111714 | 44 | 184 | 0.0 | 0.0 | 0.00 | 0.07 | 0.07 | 99 | 1009.3 |
| 20260506111212 | 44 | 180 | 0.0 | 0.0 | 0.00 | 0.07 | 0.07 | 99 | 1009.1 |
| 20260506110708 | 44 | 156 | 0.0 | 0.0 | 0.00 | 0.07 | 0.07 | 99 | 1008.8 |
| 20260506110206 | 44 | 149 | 0.0 | 0.0 | 0.00 | 0.07 | 0.07 | 99 | 1008.9 |
| 20260506105703 | 44 | 149 | 0.0 | 0.0 | 0.00 | 0.07 | 0.07 | 99 | 1008.8 |
| 20260506105159 | 44 | 144 | 0.0 | 0.0 | 0.00 | 0.07 | 0.07 | 99 | 1008.9 |
| 20260506104658 | 44 | 177 | 0.0 | 0.0 | 0.00 | 0.07 | 0.07 | 99 | 1008.9 |
| 20260506104155 | 45 | 158 | 0.0 | 0.0 | 0.00 | 0.07 | 0.07 | 99 | 1008.7 |
| 20260506103652 | 45 | 158 | 0.0 | 0.0 | 0.00 | 0.07 | 0.07 | 99 | 1008.3 |
| 20260506103149 | 45 | 160 | 0.0 | 0.0 | 0.00 | 0.07 | 0.07 | 99 | 1008.2 |
| 20260506102647 | 45 | 166 | 0.0 | 0.0 | 0.00 | 0.07 | 0.07 | 99 | 1008.1 |
| 20260506102144 | 45 | 145 | 0.0 | 0.0 | 0.00 | 0.07 | 0.07 | 99 | 1007.6 |